NOAA 16 DEB, 41268

Orbit data source: Space-Track

NOAA 16 DEB, 41268 is space debris in SSO originally from a launch on Thu, 21 Sep 2000 UTC launched from the Air Force Western Test Range (AFWTR). Debris objects in space refer to the collection of defunct objects orbiting the Earth. Examples of debris include non-operational satellites, rocket bodies, and fragments generated from explosions, collisions, or faulty payload assembly.

Loading next visibility...
Identifier
41268, 2000-055FU
Orbit
SSO
Country
Flag of USUS
Related business
Manufacturer
Unknown
Mission
Spacecraft
Bus & Motor
Unknown
Mass
Unknown
Launch date (UTC)
2000-09-21 (25 years ago)
Launch vehicle
Unknown
Launch site
Air Force Western Test Range (AFWTR)
Object type
Payload
Rocket body
Debris
Shape & HBR
Unknown shape, 0.1 m
Radar Cross Section
Small (<0.1 m²)

Expand to show TLE details & history
Last TLE update: 2 days ago

TLE from 2 days ago
0 NOAA 16 DEB
1 41268U 00055FU  26036.10558811  .00005633  00000-0  25109-2 0  9993
2 41268  98.8568 130.0566 0024858 277.1046  82.7305 14.23016309521037
Epoch: 2026-02-05T02:32Z
TLE epoch observation values (Epoch: 2026-02-05T02:32:02.812Z)
Latitude
-0.00006°
Longitude
-43.2177°
Altitude
815.864 km
Speed
7.446 km/s
True Right ascension
08h 40m 13s
True Declination
0° 00' 00"
Sunlit
Object was in full shadow at epoch
Visualization orbit readout
Latitude
Unknown
Longitude
Unknown
Altitude
Unknown
Speed
Unknown
Apparent Right ascension
Unknown
Apparent Declination
Unknown
Sunlit
N/A
Visualization observer readout
Local Sidereal Time
21:02:14
Azimuth
Unknown
Elevation
Unknown
Doppler factor
Unknown
Orbital elements
Apogee altitude
830.206 km
Perigee altitude
794.457 km
Semi-major axis
7,190.469 km
Eccentricity
0.00249
Inclination
98.8568°
RAAN
130.0566°
Arg. of periapsis
277.1046°
True anomaly
83.01317°
Mean anomaly
82.7305°
Eccentric anomaly
82.87183°
Mean motion
3.55965 °/min
Orbital period
101.13 mins
BSTAR
0.0025109
Loading maneuver chart data...
Computing Atmospheric mass density...
Loading historical data...
Loading historical data...
Loading historical data...
Loading historical data...
Loading historical data...
Loading historical data...
Loading historical data...

Documentation

Showing up to 5 results
|